Overview Statistics Trail Chart Weather Telemetry Raw packets
 

This is the latest recevied weather packets stored in our database for station/object K8WEH. If no packets are shown the sender has not sent any weather packets the latest 10 day(s).

<< 1 2 3 4 >>
Time Temp. Humidity Pressure Rain* Wind** Luminosity Snow
1788627916 27.78° C 70% 1014.3 hPa 0 mm - - -
1788627615 27.22° C 71% 1014.3 hPa 0 mm - - -
1788627314 26.67° C 71% 1014.4 hPa 0 mm - - -
1788627013 26.67° C 72% 1014.5 hPa 0 mm - - -
1788626711 26.11° C 71% 1014.5 hPa 0 mm - - -
1788626409 25.56° C 71% 1014.5 hPa 0 mm - - -
1788626109 25° C 71% 1014.5 hPa 0 mm - - -
1788625806 25° C 70% 1014.6 hPa 0 mm - - -
1788625508 25° C 69% 1014.7 hPa 0 mm - - -
1788625206 25° C 70% 1014.6 hPa 0 mm - - -
1788624904 25° C 68% 1014.4 hPa 0 mm - - -
1788624604 25° C 66% 1014.8 hPa 0 mm - - -
1788624303 25° C 64% 1014.7 hPa 0 mm - - -
1788624004 25° C 63% 1014.5 hPa 0 mm - - -
1788623703 24.44° C 64% 1014.6 hPa 0 mm - - -
1788623462 24.44° C 65% 1014.6 hPa 0 mm - - -
1788623160 24.44° C 61% 1014.6 hPa 0 mm - - -
1788622859 24.44° C 61% 1014.3 hPa 0 mm - - -
1788622557 23.89° C 53% 1014.3 hPa 0 mm - - -
1788622267 23.89° C 58% 1014.3 hPa 0 mm - - -
1788621956 23.89° C 55% 1014.1 hPa 0 mm - - -
1788621656 23.89° C 56% 1014.1 hPa 0 mm - - -
1788621358 23.89° C 56% 1013.7 hPa 0 mm - - -
1788621056 23.33° C 58% 1013.7 hPa 0 mm - - -
1788620755 23.33° C 56% 1013.6 hPa 0 mm - - -

* Rain latest hour (hover to see other rain measurements)
** Current wind speed in m/s (hover to see current wind gust speed)